Location: Unspecified
(0.0000°N, 0.0000°E)
Time: 14:06:15
(UTC+00:00)

NAPA-2 - Pass Details

Date: 18 February 2026
Orbit: 356 x 361 km, 97.7° (Epoch: 6 March)

Event Time Altitude Azimuth Distance (km) Brightness Sun altitude
Rises 04:58:46 0° 134° (SE) 2,183 ? -18.4°
Reaches altitude 10° 05:02:01 10° 92° (E) 1,329 ? -17.6°
Maximum altitude 05:02:41 11° 79° (E) 1,295 ? -17.4°
Drops below altitude 10° 05:03:20 10° 65° (ENE) 1,326 ? -17.3°
Sets 05:06:33 0° 23° (NNE) 2,163 ? -16.5°
